TimeCDT,TemperatureF,Dew PointF,Humidity,Sea Level PressureIn,VisibilityMPH,Wind Direction,Wind SpeedMPH,Gust SpeedMPH,PrecipitationIn,Events,Conditions,WindDirDegrees,DateUTC
12:12 AM,73.4,68.0,83,29.84,10.0,Calm,Calm,-,N/A,,Clear,0,2013-06-27 05:12:00
12:33 AM,71.6,68.0,88,29.84,10.0,Calm,Calm,-,N/A,,Clear,0,2013-06-27 05:33:00
12:53 AM,71.6,68.0,88,29.84,10.0,Calm,Calm,-,N/A,,Scattered Clouds,0,2013-06-27 05:53:00
1:13 AM,71.6,68.0,88,29.84,10.0,Calm,Calm,-,N/A,,Scattered Clouds,0,2013-06-27 06:13:00
1:33 AM,71.6,68.0,88,29.83,10.0,Calm,Calm,-,N/A,,Scattered Clouds,0,2013-06-27 06:33:00
1:53 AM,71.6,69.8,94,29.83,10.0,Calm,Calm,-,N/A,,Scattered Clouds,0,2013-06-27 06:53:00
2:13 AM,71.6,69.8,94,29.84,10.0,Calm,Calm,-,N/A,,Clear,0,2013-06-27 07:13:00
2:33 AM,69.8,68.0,94,29.83,10.0,Calm,Calm,-,N/A,,Clear,0,2013-06-27 07:33:00
2:53 AM,71.6,68.0,88,29.83,10.0,Calm,Calm,-,N/A,,Clear,0,2013-06-27 07:53:00
3:13 AM,71.6,68.0,88,29.84,10.0,WSW,3.5,-,N/A,,Clear,240,2013-06-27 08:13:00
3:32 AM,71.6,68.0,88,29.85,10.0,WSW,4.6,-,N/A,,Mostly Cloudy,250,2013-06-27 08:32:00
3:53 AM,71.6,66.2,83,29.84,10.0,West,4.6,-,N/A,,Mostly Cloudy,260,2013-06-27 08:53:00
4:13 AM,71.6,66.2,83,29.85,10.0,West,3.5,-,N/A,,Scattered Clouds,270,2013-06-27 09:13:00
4:32 AM,71.6,66.2,83,29.84,10.0,WSW,4.6,-,N/A,,Clear,250,2013-06-27 09:32:00
4:53 AM,71.6,66.2,83,29.84,10.0,West,4.6,-,N/A,,Scattered Clouds,270,2013-06-27 09:53:00
5:13 AM,71.6,66.2,83,29.85,10.0,West,5.8,-,N/A,,Mostly Cloudy,270,2013-06-27 10:13:00
5:32 AM,71.6,66.2,83,29.85,10.0,West,5.8,-,N/A,,Scattered Clouds,270,2013-06-27 10:32:00
5:53 AM,71.6,66.2,83,29.84,10.0,West,5.8,-,N/A,,Scattered Clouds,280,2013-06-27 10:53:00
6:13 AM,71.6,66.2,83,29.84,10.0,West,6.9,-,N/A,,Scattered Clouds,280,2013-06-27 11:13:00
6:32 AM,71.6,66.2,83,29.85,10.0,West,8.1,-,N/A,,Clear,280,2013-06-27 11:32:00
6:53 AM,73.4,66.2,78,29.86,10.0,West,8.1,-,N/A,,Clear,280,2013-06-27 11:53:00
7:13 AM,73.4,66.2,78,29.86,10.0,WNW,10.4,-,N/A,,Clear,290,2013-06-27 12:13:00
7:32 AM,73.4,66.2,78,29.85,10.0,WNW,11.5,-,N/A,,Clear,300,2013-06-27 12:32:00
7:53 AM,75.2,66.2,73,29.86,10.0,WNW,11.5,18.4,N/A,,Clear,290,2013-06-27 12:53:00
8:13 AM,75.2,64.4,69,29.86,10.0,WNW,10.4,-,N/A,,Clear,290,2013-06-27 13:13:00
8:32 AM,75.2,64.4,69,29.86,10.0,WNW,13.8,17.3,N/A,,Clear,300,2013-06-27 13:32:00
8:53 AM,75.2,64.4,69,29.86,10.0,WNW,10.4,-,N/A,,Clear,300,2013-06-27 13:53:00
9:13 AM,78.8,64.4,61,29.86,10.0,WNW,10.4,-,N/A,,Clear,300,2013-06-27 14:13:00
9:32 AM,77.0,64.4,65,29.86,10.0,WNW,11.5,17.3,N/A,,Clear,300,2013-06-27 14:32:00
9:53 AM,78.8,64.4,61,29.86,10.0,WNW,10.4,17.3,N/A,,Clear,290,2013-06-27 14:53:00
10:12 AM,80.6,62.6,54,29.86,10.0,WNW,9.2,-,N/A,,Clear,300,2013-06-27 15:12:00
10:33 AM,80.6,59.0,48,29.86,10.0,NW,12.7,18.4,N/A,,Clear,310,2013-06-27 15:33:00
10:52 AM,82.4,57.2,42,29.86,10.0,WNW,13.8,21.9,N/A,,Clear,300,2013-06-27 15:52:00
11:13 AM,82.4,57.2,42,29.87,10.0,WNW,16.1,24.2,N/A,,Clear,300,2013-06-27 16:13:00
11:33 AM,82.4,55.4,39,29.87,10.0,WNW,17.3,25.3,N/A,,Clear,300,2013-06-27 16:33:00
11:52 AM,82.4,57.2,42,29.86,10.0,WNW,15.0,23.0,N/A,,Clear,300,2013-06-27 16:52:00
12:13 PM,82.4,55.4,39,29.86,10.0,WNW,21.9,25.3,N/A,,Clear,290,2013-06-27 17:13:00
12:33 PM,82.4,55.4,39,29.86,10.0,WNW,18.4,24.2,N/A,,Clear,290,2013-06-27 17:33:00
12:52 PM,84.2,53.6,35,29.87,10.0,WNW,18.4,25.3,N/A,,Clear,300,2013-06-27 17:52:00
1:13 PM,84.2,51.8,33,29.87,10.0,WNW,16.1,28.8,N/A,,Clear,300,2013-06-27 18:13:00
1:33 PM,84.2,51.8,33,29.87,10.0,NW,18.4,27.6,N/A,,Clear,310,2013-06-27 18:33:00
1:53 PM,84.2,50.0,30,29.87,10.0,WNW,15.0,27.6,N/A,,Clear,300,2013-06-27 18:53:00
2:13 PM,84.2,51.8,33,29.87,10.0,WNW,17.3,27.6,N/A,,Clear,300,2013-06-27 19:13:00
2:32 PM,84.2,51.8,33,29.87,10.0,WNW,13.8,24.2,N/A,,Clear,300,2013-06-27 19:32:00
2:53 PM,84.2,51.8,33,29.87,10.0,West,16.1,21.9,N/A,,Clear,280,2013-06-27 19:53:00
3:13 PM,86.0,53.6,33,29.86,10.0,WNW,17.3,23.0,N/A,,Clear,300,2013-06-27 20:13:00
3:32 PM,84.2,51.8,33,29.87,10.0,WNW,13.8,19.6,N/A,,Clear,300,2013-06-27 20:32:00
3:53 PM,86.0,51.8,31,29.86,10.0,WNW,11.5,23.0,N/A,,Clear,300,2013-06-27 20:53:00
4:13 PM,84.2,51.8,33,29.86,10.0,WNW,15.0,24.2,N/A,,Clear,290,2013-06-27 21:13:00
4:32 PM,86.0,51.8,31,29.86,10.0,WNW,18.4,23.0,N/A,,Scattered Clouds,300,2013-06-27 21:32:00
4:53 PM,84.2,51.8,33,29.86,10.0,NW,13.8,23.0,N/A,,Clear,310,2013-06-27 21:53:00
5:13 PM,84.2,53.6,35,29.85,10.0,WNW,11.5,-,N/A,,Clear,300,2013-06-27 22:13:00
5:32 PM,84.2,53.6,35,29.85,10.0,WNW,13.8,19.6,N/A,,Scattered Clouds,290,2013-06-27 22:32:00
5:53 PM,84.2,53.6,35,29.85,10.0,WNW,11.5,19.6,N/A,,Clear,300,2013-06-27 22:53:00
6:13 PM,84.2,53.6,35,29.84,10.0,WNW,13.8,19.6,N/A,,Clear,300,2013-06-27 23:13:00
6:32 PM,84.2,55.4,37,29.84,10.0,WNW,16.1,24.2,N/A,,Clear,290,2013-06-27 23:32:00
6:53 PM,84.2,53.6,35,29.84,10.0,WNW,13.8,23.0,N/A,,Clear,290,2013-06-27 23:53:00
7:13 PM,84.2,55.4,37,29.84,10.0,WNW,15.0,25.3,N/A,,Scattered Clouds,290,2013-06-28 00:13:00
7:32 PM,84.2,55.4,37,29.84,10.0,WNW,13.8,20.7,N/A,,Scattered Clouds,290,2013-06-28 00:32:00
7:53 PM,82.4,55.4,39,29.83,10.0,WNW,13.8,21.9,N/A,,Clear,290,2013-06-28 00:53:00
8:13 PM,82.4,53.6,37,29.84,10.0,WNW,13.8,20.7,N/A,,Clear,290,2013-06-28 01:13:00
8:32 PM,80.6,55.4,42,29.84,10.0,WNW,10.4,18.4,N/A,,Clear,290,2013-06-28 01:32:00
8:53 PM,80.6,55.4,42,29.83,10.0,WNW,10.4,17.3,N/A,,Clear,290,2013-06-28 01:53:00
9:13 PM,78.8,53.6,42,29.83,10.0,WNW,12.7,16.1,N/A,,Clear,300,2013-06-28 02:13:00
9:32 PM,78.8,53.6,42,29.84,10.0,WNW,10.4,16.1,N/A,,Clear,300,2013-06-28 02:32:00
9:53 PM,78.8,53.6,42,29.84,10.0,WNW,6.9,-,N/A,,Clear,300,2013-06-28 02:53:00
10:13 PM,75.2,55.4,50,29.84,10.0,WNW,5.8,-,N/A,,Clear,300,2013-06-28 03:13:00
10:32 PM,75.2,55.4,50,29.84,10.0,WNW,6.9,-,N/A,,Clear,300,2013-06-28 03:32:00
10:53 PM,75.2,55.4,50,29.84,10.0,WNW,6.9,-,N/A,,Clear,290,2013-06-28 03:53:00
11:13 PM,73.4,55.4,53,29.85,10.0,WNW,6.9,-,N/A,,Clear,290,2013-06-28 04:13:00
11:32 PM,73.4,55.4,53,29.85,10.0,WNW,9.2,-,N/A,,Clear,300,2013-06-28 04:32:00
11:53 PM,73.4,55.4,53,29.86,10.0,NW,8.1,-,N/A,,Clear,310,2013-06-28 04:53:00